Location: Buckland
(65.9785°N, 161.1281°W)
Time: 03:43:14
(UTC+00:00)

Transit 4A - Pass Details

Date: 07 August 2021
Orbit: 870 x 974 km, 66.8° (Epoch: 26 September)

Event Time Altitude Azimuth Distance (km) Brightness Sun altitude
Exits shadow 09:50:34 - 197° (SSW) 3,116 10.1 -7.0°
Reaches altitude 10° 09:52:15 10° 191° (S) 2,527 9.6 -7.0°
Maximum altitude 09:57:28 35° 127° (SE) 1,370 8.5 -7.1°
Drops below altitude 10° 10:02:41 10° 64° (ENE) 2,533 10.4 -7.2°
Sets 10:05:21 0° 56° (NE) 3,480 11.2 -7.3°
